Time[GMT],current_speed[cm/s](2m),current_direction[angular_degrees](2m),temperature[C](2m),current_u[cm/s](2m),current_v[cm/s](2m)
2007-09-21 21:00,5.28,39.5,14.44,3.36,4.08
2007-09-21 22:00,5.28,7.5,14.44,0.69,5.23
2007-09-21 23:00,14.37,149.2,14.47,7.37,-12.34
2007-09-22 00:00,21.70,171.7,14.47,3.15,-21.47
2007-09-22 01:00,17.89,141.8,14.47,11.07,-14.06
2007-09-22 02:00,29.92,160.1,14.47,10.20,-28.12
2007-09-22 03:00,24.64,184.0,14.41,-1.70,-24.58
2007-09-22 04:00,21.41,167.1,14.47,4.78,-20.87
2007-09-22 05:00,13.20,188.5,14.41,-1.96,-13.05
2007-09-22 06:00,13.20,25.7,14.38,5.73,11.89
2007-09-22 07:00,17.01,63.0,14.35,15.16,7.72
2007-09-22 08:00,24.34,12.4,14.38,5.22,23.78
2007-09-22 09:00,7.33,86.2,14.35,7.32,0.48
2007-09-22 10:00,16.13,50.4,14.47,12.42,10.29
2007-09-22 11:00,10.85,83.8,14.47,10.79,1.18
2007-09-22 12:00,17.01,142.8,14.51,10.28,-13.56
2007-09-22 13:00,23.76,144.9,14.51,13.65,-19.45
2007-09-22 14:00,31.38,141.8,14.51,19.42,-24.65
2007-09-22 15:00,22.00,160.8,14.54,7.25,-20.77
2007-09-22 16:00,27.57,166.4,14.51,6.49,-26.80
2007-09-22 17:00,20.82,172.7,14.47,2.64,-20.66
2007-09-22 18:00,1.17,297.5,14.51,-1.04,0.54
2007-09-22 19:00,16.13,56.7,14.51,13.48,8.86
2007-09-22 20:00,27.86,47.9,14.51,20.67,18.68
2007-09-22 21:00,22.00,76.7,14.54,21.41,5.05
2007-09-22 22:00,26.69,61.3,14.54,23.40,12.83
2007-09-22 23:00,20.53,43.3,14.51,14.09,14.94
2007-09-23 00:00,22.58,86.2,14.44,22.54,1.49
2007-09-23 01:00,31.38,126.7,14.41,25.18,-18.74
2007-09-23 03:00,50.74,128.8,14.70,39.56,-31.77
2007-09-23 04:00,46.05,141.4,14.70,28.71,-36.00
2007-09-23 05:00,38.42,151.6,14.73,18.26,-33.80
2007-09-23 06:00,35.20,143.9,14.73,20.75,-28.43
2007-09-23 07:00,19.65,105.9,14.73,18.90,-5.39
2007-09-23 08:00,29.33,67.6,14.76,27.11,11.18
2007-09-23 09:00,23.17,81.7,14.79,22.93,3.36
2007-09-23 10:00,14.96,83.8,14.88,14.87,1.63
2007-09-23 11:00,11.15,121.0,14.85,9.55,-5.75
2007-09-23 12:00,7.63,130.2,14.85,5.83,-4.92
2007-09-23 13:00,24.34,152.0,14.92,11.44,-21.49
2007-09-23 14:00,31.38,162.2,14.92,9.61,-29.88
2007-09-23 15:00,41.36,169.9,14.92,7.25,-40.71
2007-09-23 16:00,43.41,174.1,14.95,4.45,-43.18
2007-09-23 17:00,31.38,197.0,14.88,-9.16,-30.02
2007-09-23 18:00,22.88,185.0,14.88,-2.00,-22.79
2007-09-23 19:00,1.47,100.6,14.82,1.44,-0.27
2007-09-23 20:00,14.37,12.4,14.88,3.08,14.04
2007-09-23 22:00,26.98,45.1,15.07,19.11,19.05
2007-09-23 23:00,32.26,79.2,15.17,31.69,6.05
2007-09-24 00:00,41.94,73.6,15.17,40.23,11.87
2007-09-24 01:00,36.96,104.2,14.98,35.83,-9.04
2007-09-24 02:00,47.51,140.7,14.85,30.08,-36.78
2007-09-24 03:00,58.66,158.7,14.85,21.35,-54.63
2007-09-24 04:00,54.26,171.3,14.54,8.20,-53.64
2007-09-24 05:00,58.07,174.1,14.41,5.95,-57.77
2007-09-24 06:00,51.33,196.3,14.35,-14.38,-49.27
2007-09-24 07:00,24.34,204.4,14.22,-10.04,-22.18
2007-09-24 08:00,13.20,309.1,14.22,-10.24,8.33
2007-09-24 09:00,38.42,345.0,14.28,-9.97,37.11
2007-09-24 10:00,31.97,340.8,14.35,-10.52,30.19
2007-09-24 11:00,29.62,13.4,14.41,6.89,28.81
2007-09-24 12:00,33.44,18.0,14.47,10.34,31.80
2007-09-24 13:00,30.21,19.4,14.66,10.04,28.49
2007-09-24 15:00,32.85,113.6,14.79,30.09,-13.18
2007-09-24 16:00,45.75,137.2,14.73,31.09,-33.57
2007-09-24 17:00,42.53,137.9,14.63,28.51,-31.56
2007-09-24 18:00,44.58,139.7,14.51,28.86,-33.98
2007-09-24 20:00,26.40,127.7,14.41,20.88,-16.15
2007-09-24 22:00,12.61,46.1,14.38,9.09,8.74
2007-09-24 23:00,17.01,356.6,14.38,-1.02,16.98
2007-09-25 01:00,13.49,1.8,14.51,0.43,13.48
2007-09-25 02:00,20.24,352.3,14.54,-2.70,20.06
2007-09-25 03:00,22.00,194.5,14.54,-5.51,-21.30
2007-09-25 04:00,7.04,151.6,14.41,3.35,-6.19
2007-09-25 05:00,22.58,169.6,14.32,4.10,-22.21
2007-09-25 06:00,7.63,156.9,14.28,2.99,-7.01
2007-09-25 07:00,13.20,28.6,14.32,6.31,11.59
2007-09-25 08:00,35.49,22.6,14.41,13.63,32.77
2007-09-25 09:00,40.77,32.4,14.57,21.86,34.41
2007-09-25 10:00,42.24,46.5,14.47,30.63,29.08
2007-09-25 11:00,31.97,61.3,14.35,28.03,15.37
2007-09-25 12:00,24.05,86.9,14.28,24.02,1.29
2007-09-25 13:00,13.79,81.3,14.35,13.63,2.09
2007-09-25 14:00,7.63,92.2,14.35,7.62,-0.29
2007-09-25 15:00,17.60,149.9,14.25,8.84,-15.22
2007-09-25 16:00,31.38,167.4,14.38,6.82,-30.63
2007-09-25 17:00,36.66,170.3,14.63,6.21,-36.13
2007-09-25 19:00,6.16,239.9,14.38,-5.33,-3.09
2007-09-25 21:00,30.80,21.2,14.70,11.12,28.72
2007-09-25 22:00,35.49,22.9,14.79,13.83,32.68
2007-09-25 23:00,35.20,17.0,14.60,10.26,33.67
2007-09-26 00:00,38.13,19.4,14.51,12.68,35.96
2007-09-26 01:00,18.18,60.6,14.66,15.84,8.94
2007-09-26 02:00,21.12,64.8,14.70,19.10,9.00
2007-09-26 03:00,37.84,115.8,14.63,34.08,-16.44
2007-09-26 04:00,45.46,124.2,14.57,37.60,-25.55
2007-09-26 05:00,48.98,130.2,14.57,37.43,-31.60
2007-09-26 06:00,66.29,140.7,14.76,41.97,-51.31
2007-09-26 07:00,62.77,153.0,14.79,28.47,-55.94
2007-09-26 08:00,43.12,169.2,14.63,8.08,-42.35
2007-09-26 09:00,23.76,156.9,14.54,9.32,-21.85
2007-09-26 10:00,2.64,110.8,14.51,2.47,-0.94
2007-09-26 11:00,7.63,91.1,14.47,7.62,-0.15
2007-09-26 12:00,16.72,3.6,14.51,1.05,16.69
2007-09-26 13:00,12.61,346.7,14.51,-2.90,12.27
2007-09-26 14:00,13.20,357.6,14.60,-0.55,13.19
2007-09-26 15:00,19.36,349.9,14.63,-3.40,19.06
2007-09-26 16:00,4.69,20.1,14.63,1.61,4.41
2007-09-26 17:00,28.16,122.4,14.70,23.76,-15.10
2007-09-26 18:00,34.32,126.0,14.76,27.78,-20.15
2007-09-26 19:00,48.69,110.1,14.82,45.71,-16.76
2007-09-26 20:00,45.46,109.1,14.85,42.97,-14.86
2007-09-26 21:00,36.37,91.8,14.85,36.35,-1.17
2007-09-26 22:00,40.77,69.0,14.79,38.06,14.61
2007-09-26 23:00,30.80,97.1,14.73,30.56,-3.82
2007-09-27 00:00,24.93,70.8,14.70,23.54,8.22
2007-09-27 01:00,20.53,106.3,14.66,19.71,-5.75
2007-09-27 02:00,22.00,126.7,14.60,17.65,-13.13
2007-09-27 03:00,21.41,142.1,14.60,13.14,-16.90
2007-09-27 04:00,31.97,175.5,14.57,2.49,-31.87
2007-09-27 05:00,46.63,192.8,14.54,-10.30,-45.48
2007-09-27 06:00,37.84,186.8,14.44,-4.47,-37.57
2007-09-27 07:00,36.96,195.9,14.47,-10.14,-35.54
2007-09-27 09:00,12.61,328.5,14.44,-6.59,10.75
2007-09-27 10:00,48.69,11.3,14.38,9.57,47.74
2007-09-27 11:00,50.15,32.8,14.54,27.15,42.17
2007-09-27 12:00,59.83,21.9,14.63,22.30,55.52
2007-09-27 13:00,53.09,35.9,14.63,31.16,42.98
2007-09-27 14:00,31.97,95.4,14.70,31.83,-2.99
2007-09-27 15:00,21.12,37.7,14.70,12.91,16.71
2007-09-27 16:00,26.69,115.1,14.76,24.18,-11.30
2007-09-27 17:00,30.21,141.4,14.76,18.84,-23.62
2007-09-27 18:00,45.75,141.1,14.54,28.75,-35.59
2007-09-27 19:00,59.83,152.3,14.51,27.79,-52.99
2007-09-27 20:00,51.03,156.2,14.73,20.60,-46.69
2007-09-27 21:00,23.76,221.6,14.63,-15.77,-17.77
2007-09-27 22:00,17.30,326.7,14.76,-9.50,14.47
2007-09-27 23:00,11.44,355.2,14.76,-0.97,11.40
2007-09-28 00:00,38.13,6.4,14.76,4.26,37.89
2007-09-28 01:00,50.74,7.8,14.51,6.90,50.27
2007-09-28 02:00,35.49,15.9,14.35,9.72,34.13
2007-09-28 03:00,23.46,82.0,14.38,23.24,3.26
2007-09-28 04:00,26.98,31.0,14.38,13.91,23.12
2007-09-28 05:00,32.56,117.9,14.35,28.78,-15.22
2007-09-28 06:00,30.80,143.9,14.41,18.15,-24.88
2007-09-28 07:00,36.08,134.0,14.47,25.93,-25.08
2007-09-28 08:00,42.24,127.0,14.47,33.73,-25.42
2007-09-28 09:00,40.77,125.6,14.41,33.15,-23.73
2007-09-28 10:00,17.60,31.7,14.38,9.25,14.97
2007-09-28 11:00,17.89,68.6,14.38,16.66,6.52
2007-09-28 12:00,9.09,133.3,14.41,6.61,-6.24
2007-09-28 13:00,14.66,4.3,14.41,1.10,14.62
2007-09-28 14:00,4.11,57.0,14.44,3.45,2.23
2007-09-28 15:00,11.15,145.3,14.57,6.35,-9.16
2007-09-28 16:00,1.17,223.0,14.19,-0.80,-0.86
2007-09-28 17:00,20.82,144.2,14.60,12.17,-16.90
2007-09-28 18:00,30.21,175.2,14.82,2.54,-30.10
2007-09-28 19:00,27.57,150.6,14.66,13.55,-24.01
2007-09-28 20:00,43.99,143.9,14.73,25.93,-35.54
2007-09-28 21:00,46.34,131.9,14.73,34.48,-30.97
2007-09-28 22:00,35.78,102.7,14.63,34.90,-7.90
2007-09-28 23:00,24.93,73.2,14.63,23.87,7.20
2007-09-29 00:00,39.01,62.7,14.73,34.65,17.91
2007-09-29 01:00,34.02,69.7,14.79,31.91,11.81
2007-09-29 02:00,36.37,80.6,14.54,35.88,5.94
2007-09-29 03:00,33.73,112.6,14.35,31.14,-12.96
2007-09-29 04:00,28.45,121.7,14.28,24.20,-14.96
2007-09-29 05:00,51.33,171.7,14.28,7.44,-50.78
2007-09-29 06:00,70.10,176.9,14.16,3.75,-70.00
2007-09-29 07:00,75.67,189.9,14.41,-13.07,-74.53
2007-09-29 08:00,66.58,189.9,14.16,-11.50,-65.58
2007-09-29 11:00,51.33,321.8,13.69,-31.75,40.33
2007-09-29 12:00,52.21,346.4,13.81,-12.30,50.74
2007-09-29 13:00,50.15,23.6,13.84,20.11,45.95
2007-09-29 14:00,38.13,35.6,13.72,22.19,31.01
2007-09-29 15:00,34.02,51.4,13.81,26.59,21.22
2007-09-29 16:00,29.62,80.9,14.03,29.25,4.66
2007-09-29 17:00,34.32,113.3,14.25,31.52,-13.57
2007-09-29 18:00,46.93,161.8,14.32,14.64,-44.58
2007-09-29 19:00,48.98,149.2,14.28,25.11,-42.05
2007-09-29 20:00,57.19,162.9,14.28,16.85,-54.66
2007-09-29 21:00,65.99,165.7,14.06,16.32,-63.94
2007-09-29 22:00,65.41,170.6,13.75,10.68,-64.53
2007-09-29 23:00,29.04,190.3,13.56,-5.19,-28.57
2007-09-30 00:00,19.65,315.1,13.62,-13.87,13.92
2007-09-30 01:00,22.88,341.8,13.50,-7.13,21.74
2007-09-30 02:00,32.56,13.4,13.62,7.57,31.66
2007-09-30 03:00,24.93,39.1,13.69,15.73,19.35
2007-09-30 04:00,8.51,142.5,13.72,5.18,-6.75
2007-09-30 05:00,7.33,136.1,13.69,5.08,-5.29
2007-09-30 06:00,32.85,165.3,13.50,8.32,-31.78
2007-09-30 08:00,46.05,186.8,13.24,-5.44,-45.73
2007-09-30 09:00,38.13,216.7,13.02,-22.77,-30.58
2007-09-30 11:00,15.54,164.6,13.15,4.12,-14.99
2007-09-30 12:00,25.81,65.5,13.02,23.48,10.71
2007-09-30 13:00,34.02,70.0,13.28,31.98,11.61
2007-09-30 14:00,29.33,25.0,13.40,12.42,26.57
2007-09-30 15:00,18.77,92.9,13.69,18.75,-0.95
2007-09-30 16:00,10.56,98.9,13.94,10.43,-1.63
2007-09-30 17:00,9.97,125.6,14.00,8.11,-5.81
2007-09-30 18:00,25.52,133.0,14.06,18.67,-17.40
2007-09-30 19:00,18.18,176.9,14.13,0.97,-18.16
2007-09-30 20:00,38.42,172.7,14.03,4.87,-38.11
2007-09-30 21:00,29.33,175.2,13.84,2.47,-29.23
2007-09-30 22:00,25.81,201.9,13.31,-9.63,-23.95
2007-09-30 23:00,37.84,141.8,13.24,23.41,-29.72
2007-10-01 00:00,18.18,73.2,13.24,17.41,5.25
2007-10-01 01:00,32.56,88.3,13.59,32.54,0.95
2007-10-01 02:00,31.97,79.5,13.50,31.44,5.80
2007-10-01 03:00,25.81,72.9,13.69,24.66,7.61
2007-10-01 04:00,14.08,106.6,13.69,13.49,-4.03
2007-10-01 05:00,10.27,117.2,13.72,9.13,-4.69
2007-10-01 06:00,2.35,213.1,13.12,-1.28,-1.96
2007-10-01 07:00,16.72,170.6,13.65,2.73,-16.49
2007-10-01 08:00,35.49,182.9,13.31,-1.80,-35.44
2007-10-01 09:00,16.72,176.2,13.12,1.10,-16.68
2007-10-01 10:00,13.49,118.9,12.93,11.81,-6.52
2007-10-01 11:00,31.09,109.8,13.40,29.26,-10.52
2007-10-01 12:00,37.54,79.5,13.43,36.92,6.81
2007-10-01 13:00,38.72,88.3,13.62,38.70,1.13
2007-10-01 14:00,39.01,89.4,13.97,39.01,0.42
2007-10-01 15:00,28.74,83.4,14.03,28.55,3.30
2007-10-01 16:00,19.36,53.5,14.10,15.57,11.51
2007-10-01 17:00,8.51,64.1,14.06,7.65,3.72
2007-10-01 18:00,1.76,129.8,13.53,1.35,-1.13
2007-10-01 19:00,5.28,26.5,13.34,2.35,4.73
2007-10-01 20:00,21.12,140.0,13.87,13.57,-16.18
2007-10-01 22:00,31.97,143.5,13.31,19.00,-25.71
2007-10-01 23:00,19.06,25.4,13.28,8.18,17.22
2007-10-02 00:00,16.42,135.1,13.21,11.59,-11.63
2007-10-02 01:00,17.01,125.6,13.97,13.83,-9.90
2007-10-02 02:00,19.06,99.2,14.00,18.82,-3.06
2007-10-02 03:00,13.49,87.6,13.91,13.48,0.56
2007-10-02 04:00,25.52,51.4,13.97,19.95,15.91
2007-10-02 05:00,14.08,77.8,13.97,13.76,2.98
2007-10-02 06:00,12.61,102.4,13.94,12.32,-2.71
2007-10-02 07:00,12.03,70.8,13.84,11.35,3.96
2007-10-02 08:00,16.72,136.5,13.91,11.51,-12.13
2007-10-02 09:00,15.25,103.8,13.84,14.81,-3.64
2007-10-02 10:00,26.10,127.4,13.84,20.75,-15.84
2007-10-02 11:00,44.87,144.9,13.87,25.78,-36.73
2007-10-02 12:00,33.44,156.2,13.59,13.50,-30.59
2007-10-02 13:00,24.64,162.5,13.69,7.40,-23.50
2007-10-02 14:00,10.27,114.3,13.78,9.35,-4.23
2007-10-02 15:00,9.68,336.9,13.84,-3.80,8.90
2007-10-02 16:00,18.48,205.4,13.84,-7.93,-16.69
2007-10-02 17:00,5.57,235.3,13.81,-4.58,-3.17
2007-10-02 18:00,8.21,301.4,13.91,-7.01,4.28
2007-10-02 19:00,5.57,38.4,13.91,3.46,4.37
2007-10-02 22:00,1.47,14.8,14.28,0.38,1.42
2007-10-02 23:00,15.25,143.5,13.78,9.06,-12.27
2007-10-03 00:00,40.18,28.2,14.22,18.99,35.41
2007-10-03 01:00,18.18,82.0,14.06,18.01,2.53
2007-10-03 02:00,26.98,77.4,14.32,26.34,5.87
2007-10-03 03:00,23.17,91.8,14.22,23.16,-0.75
2007-10-03 04:00,24.34,89.0,14.06,24.34,0.41
2007-10-03 05:00,13.79,100.6,14.10,13.55,-2.54
2007-10-03 06:00,16.13,122.8,14.28,13.56,-8.74
2007-10-03 09:00,22.29,204.4,14.06,-9.19,-20.31
2007-10-03 10:00,26.98,199.8,14.13,-9.14,-25.39
2007-10-03 11:00,8.80,234.9,13.78,-7.20,-5.05
2007-10-03 12:00,16.72,199.1,14.00,-5.47,-15.80
2007-10-03 13:00,3.52,263.8,14.10,-3.50,-0.38
2007-10-03 14:00,13.79,234.6,14.19,-11.24,-7.99
2007-10-03 15:00,6.16,317.6,14.28,-4.16,4.55
2007-10-03 16:00,13.20,331.3,14.41,-6.34,11.58
2007-10-03 17:00,5.87,344.3,14.32,-1.59,5.65
2007-10-03 18:00,14.96,50.7,14.76,11.58,9.47
2007-10-03 19:00,19.94,22.9,14.60,7.77,18.37
2007-10-03 20:00,7.33,358.3,14.70,-0.21,7.33
2007-10-03 21:00,9.09,27.2,14.82,4.15,8.09
2007-10-03 22:00,16.42,127.4,14.88,13.06,-9.97
2007-10-03 23:00,18.48,125.6,14.82,15.02,-10.76
2007-10-04 00:00,26.40,135.4,14.70,18.52,-18.81
2007-10-04 01:00,33.73,144.9,14.54,19.38,-27.61
2007-10-04 02:00,23.76,155.8,14.51,9.72,-21.68
2007-10-04 03:00,14.08,84.1,14.51,14.00,1.44
2007-10-04 04:00,6.75,117.9,14.51,5.96,-3.15
2007-10-04 05:00,16.42,90.4,14.85,16.42,-0.13
2007-10-04 06:00,22.58,90.8,14.70,22.58,-0.31
2007-10-04 07:00,10.27,60.6,14.88,8.94,5.05
2007-10-04 08:00,14.66,85.5,14.79,14.62,1.15
2007-10-04 09:00,9.68,47.2,14.60,7.10,6.58
2007-10-04 10:00,6.45,141.1,14.35,4.05,-5.02
2007-10-04 11:00,27.86,125.2,14.63,22.75,-16.08
2007-10-04 12:00,20.82,151.6,14.51,9.90,-18.32
2007-10-04 13:00,29.04,139.7,14.32,18.79,-22.13
2007-10-04 14:00,34.32,137.2,14.66,23.31,-25.18
2007-10-04 15:00,29.92,147.8,14.76,15.96,-25.30
2007-10-04 16:00,24.64,121.4,14.79,21.03,-12.83
2007-10-04 17:00,17.30,159.4,15.07,6.10,-16.19
2007-10-04 19:00,1.47,203.3,15.17,-0.58,-1.35
2007-10-04 20:00,12.03,272.2,15.17,-12.02,0.47
2007-10-04 21:00,10.27,271.9,14.98,-10.26,0.33
2007-10-04 22:00,14.08,287.7,14.82,-13.41,4.28
2007-10-04 23:00,14.66,256.7,14.95,-14.27,-3.36
2007-10-05 00:00,10.27,201.2,14.76,-3.71,-9.57
2007-10-05 01:00,18.77,213.5,14.92,-10.36,-15.65
2007-10-05 02:00,24.05,181.5,14.82,-0.63,-24.04
2007-10-05 03:00,12.32,106.6,14.79,11.80,-3.52
2007-10-05 04:00,30.21,70.4,14.85,28.46,10.13
2007-10-05 05:00,27.86,83.1,14.82,27.66,3.37
2007-10-05 06:00,19.06,101.0,15.01,18.71,-3.63
2007-10-05 07:00,17.30,134.7,15.04,12.29,-12.18
2007-10-05 08:00,13.49,138.6,15.04,8.92,-10.12
2007-10-05 09:00,2.64,189.6,15.01,-0.44,-2.60
2007-10-05 10:00,12.61,261.7,15.01,-12.48,-1.83
2007-10-05 11:00,10.85,315.8,14.79,-7.56,7.78
2007-10-05 12:00,9.68,204.7,14.70,-4.05,-8.79
2007-10-05 13:00,21.70,224.4,15.11,-15.19,-15.51
2007-10-05 14:00,18.18,245.8,14.95,-16.59,-7.44
2007-10-05 15:00,18.77,271.2,15.26,-18.77,0.38
2007-10-05 16:00,20.82,297.2,15.07,-18.52,9.51
2007-10-05 17:00,19.65,11.0,15.04,3.74,19.29
2007-10-05 18:00,10.85,11.0,15.52,2.07,10.65
2007-10-05 19:00,23.76,58.1,15.83,20.17,12.56
2007-10-05 20:00,28.45,64.4,15.71,25.66,12.28
2007-10-05 21:00,30.21,46.8,15.61,22.04,20.66
2007-10-05 22:00,32.56,44.4,15.42,22.77,23.27
2007-10-05 23:00,23.76,50.7,15.29,18.39,15.04
2007-10-06 00:00,25.81,61.3,15.14,22.63,12.41
2007-10-06 01:00,39.01,133.3,15.42,28.37,-26.77
2007-10-06 02:00,39.01,121.7,15.26,33.18,-20.52
2007-10-06 03:00,25.52,95.7,15.23,25.39,-2.54
2007-10-06 04:00,24.05,143.9,15.23,14.18,-19.43
2007-10-06 05:00,24.34,165.7,15.36,6.02,-23.59
2007-10-06 06:00,11.73,175.2,15.33,0.99,-11.69
2007-10-06 07:00,0.59,1.5,15.26,0.02,0.59
2007-10-06 08:00,1.76,40.5,15.29,1.14,1.34
2007-10-06 10:00,27.86,336.6,15.20,-11.08,25.56
2007-10-06 11:00,18.18,344.6,15.14,-4.83,17.53
2007-10-06 12:00,17.01,333.4,15.14,-7.62,15.21
2007-10-06 13:00,15.84,359.0,15.14,-0.27,15.84
2007-10-06 14:00,13.20,207.2,15.20,-6.03,-11.74
2007-10-06 15:00,10.85,88.7,15.20,10.85,0.25
2007-10-06 16:00,26.40,56.0,15.26,21.88,14.77
2007-10-06 17:00,11.44,60.9,15.33,10.00,5.56
2007-10-06 18:00,21.41,97.5,15.36,21.23,-2.78
2007-10-06 19:00,13.79,100.6,15.39,13.55,-2.54
2007-10-06 20:00,1.17,20.1,15.39,0.40,1.10
2007-10-06 21:00,6.16,338.3,15.39,-2.28,5.72
2007-10-06 22:00,13.20,311.2,15.39,-9.92,8.70
2007-10-06 23:00,12.91,340.8,15.36,-4.25,12.19
2007-10-07 00:00,11.44,14.8,15.33,2.93,11.06
2007-10-07 01:00,,,,,
2007-10-07 02:00,,,,,
2007-10-07 03:00,19.06,166.0,15.29,4.60,-18.50
2007-10-07 04:00,,,,,
2007-10-07 05:00,12.91,66.2,15.23,11.81,5.21
2007-10-07 06:00,23.46,51.4,15.20,18.34,14.63
2007-10-07 07:00,19.94,63.7,15.20,17.88,8.83
2007-10-07 08:00,21.70,80.6,15.14,21.41,3.55
2007-10-07 09:00,11.15,91.5,15.11,11.14,-0.29
2007-10-07 11:00,9.39,191.7,15.01,-1.90,-9.19
2007-10-07 12:00,14.08,206.1,14.98,-6.20,-12.64
2007-10-07 13:00,17.89,246.2,14.95,-16.37,-7.22
2007-10-07 14:00,37.25,246.2,14.95,-34.08,-15.03
2007-10-07 15:00,36.08,272.6,14.95,-36.04,1.62
2007-10-07 16:00,,,,,
2007-10-07 17:00,26.98,208.9,14.92,-13.05,-23.62
2007-10-07 18:00,18.48,262.4,14.85,-18.31,-2.45
2007-10-07 19:00,4.69,161.1,14.85,1.52,-4.44
2007-10-07 20:00,7.92,61.6,14.82,6.97,3.77
2007-10-07 21:00,15.54,57.7,14.76,13.15,8.30
2007-10-07 22:00,6.16,350.6,14.73,-1.01,6.08
2007-10-07 23:00,1.17,19.1,14.70,0.38,1.11
2007-10-08 03:00,26.40,184.7,14.60,-2.15,-26.31
2007-10-08 05:00,,,,,
2007-10-08 06:00,17.01,182.9,14.57,-0.86,-16.99
2007-10-08 07:00,16.13,163.9,14.54,4.47,-15.50
2007-10-08 08:00,4.69,341.8,14.51,-1.46,4.46
2007-10-08 09:00,8.80,308.1,14.51,-6.93,5.43
2007-10-08 10:00,15.25,321.4,14.47,-9.51,11.93
2007-10-08 11:00,16.72,5.7,14.47,1.66,16.64
2007-10-08 12:00,27.57,339.7,14.44,-9.55,25.86
2007-10-08 13:00,0.59,310.2,14.41,-0.45,0.38
2007-10-08 14:00,4.69,294.0,14.38,-4.29,1.91
2007-10-08 15:00,19.36,189.2,14.38,-3.11,-19.11
2007-10-08 16:00,29.62,345.3,14.38,-7.51,28.66
2007-10-08 17:00,17.01,75.7,14.38,16.48,4.21
2007-10-08 18:00,16.13,123.1,14.41,13.51,-8.82
2007-10-08 19:00,18.48,115.8,14.44,16.64,-8.03
2007-10-08 20:00,26.10,108.0,14.47,24.82,-8.08
2007-10-08 21:00,28.45,107.0,14.44,27.21,-8.30
2007-10-08 22:00,18.77,108.4,14.41,17.81,-5.92
2007-10-08 23:00,3.81,141.8,14.41,2.36,-3.00
2007-10-09 00:00,4.11,5.4,14.41,0.38,4.09
2007-10-09 01:00,13.20,298.9,14.38,-11.55,6.39
2007-10-09 02:00,18.18,236.4,14.38,-15.14,-10.08
2007-10-09 03:00,18.18,275.0,14.41,-18.11,1.59
2007-10-09 04:00,,,,,
2007-10-09 05:00,56.31,332.3,14.38,-26.14,49.88
2007-10-09 06:00,1.47,175.5,14.38,0.11,-1.46
2007-10-09 07:00,15.54,134.7,14.38,11.04,-10.94
2007-10-09 08:00,23.76,92.6,14.38,23.73,-1.06
2007-10-09 09:00,22.88,85.5,14.28,22.81,1.79
2007-10-09 10:00,33.14,130.2,14.25,25.32,-21.38
2007-10-09 15:00,35.78,220.5,14.16,-23.25,-27.20
2007-10-09 16:00,,,,,
2007-10-09 17:00,31.68,240.9,13.87,-27.68,-15.39
2007-10-09 18:00,45.46,289.8,13.81,-42.77,15.40
2007-10-09 19:00,22.88,313.7,13.97,-16.54,15.81
2007-10-09 20:00,16.72,357.6,14.03,-0.69,16.70
2007-10-09 21:00,17.89,38.4,14.06,11.11,14.02
2007-10-09 22:00,19.94,45.8,14.10,14.30,13.91
2007-10-09 23:00,19.94,57.4,14.10,16.80,10.75
2007-10-10 00:00,,,,,
2007-10-10 01:00,,,,,
2007-10-10 02:00,7.04,176.9,14.13,0.38,-7.03
2007-10-10 03:00,9.09,191.0,14.10,-1.73,-8.93
2007-10-10 04:00,26.40,173.4,14.10,3.03,-26.22
2007-10-10 06:00,37.84,187.5,14.06,-4.93,-37.51
2007-10-10 07:00,32.56,321.1,14.03,-20.45,25.33
2007-10-10 08:00,15.84,205.8,14.10,-6.88,-14.26
2007-10-10 09:00,1.76,0.8,14.06,0.02,1.76
2007-10-10 10:00,11.44,13.4,14.03,2.66,11.13
2007-10-10 11:00,36.96,343.6,14.03,-10.46,35.44
2007-10-10 12:00,12.03,5.4,14.03,1.12,11.97
2007-10-10 13:00,7.92,35.2,14.00,4.57,6.47
2007-10-10 14:00,1.76,44.0,14.00,1.22,1.27
2007-10-10 15:00,23.76,313.7,14.03,-17.17,16.42
2007-10-10 16:00,11.44,257.8,14.03,-11.18,-2.42
2007-10-10 17:00,11.44,225.8,14.06,-8.20,-7.97
2007-10-10 18:00,12.32,157.6,14.06,4.69,-11.39
2007-10-10 19:00,3.81,45.8,14.10,2.73,2.66
2007-10-10 20:00,20.53,69.7,14.06,19.26,7.12
2007-10-10 21:00,20.24,98.2,14.16,20.03,-2.88
2007-10-10 22:00,21.12,86.6,14.13,21.08,1.26
2007-10-10 23:00,16.42,80.6,14.06,16.20,2.68
2007-10-11 00:00,11.44,66.9,14.03,10.52,4.49
2007-10-11 01:00,,,,,
2007-10-11 02:00,14.37,217.0,14.03,-8.65,-11.48
2007-10-11 03:00,,,,,
2007-10-11 04:00,,,,,
2007-10-11 05:00,31.97,237.8,14.13,-27.04,-17.05
2007-10-11 06:00,27.86,244.8,14.10,-25.21,-11.87
2007-10-11 07:00,12.61,242.0,14.10,-11.13,-5.92
2007-10-11 08:00,18.48,289.1,14.03,-17.46,6.04
2007-10-11 09:00,6.45,49.0,14.00,4.87,4.24
2007-10-11 10:00,21.41,41.6,14.03,14.21,16.02
2007-10-11 11:00,22.00,20.5,14.00,7.69,20.61
2007-10-11 12:00,14.66,34.5,14.03,8.31,12.08
2007-10-11 13:00,10.56,74.3,14.06,10.16,2.86
2007-10-11 14:00,9.09,159.7,14.06,3.15,-8.53
2007-10-11 15:00,,,,,
2007-10-11 16:00,27.28,202.6,14.10,-10.48,-25.18
2007-10-11 17:00,,,,,
2007-10-11 18:00,34.32,220.5,14.13,-22.30,-26.08
2007-10-11 19:00,31.38,234.6,14.10,-25.58,-18.18
2007-10-11 20:00,26.10,237.8,13.94,-22.08,-13.92
2007-10-11 21:00,,,,,
2007-10-11 22:00,15.54,10.3,13.97,2.77,15.30
2007-10-11 23:00,21.70,22.2,14.03,8.21,20.09
2007-10-12 00:00,24.34,15.6,13.97,6.53,23.45
2007-10-12 01:00,17.01,13.8,14.00,4.06,16.52
2007-10-12 02:00,12.03,332.7,13.97,-5.52,10.69
2007-10-12 03:00,9.39,312.3,13.91,-6.94,6.32
2007-10-12 04:00,16.72,250.4,13.87,-15.75,-5.60
2007-10-12 05:00,,,,,
2007-10-12 06:00,,,,,
2007-10-12 07:00,,,,,
2007-10-12 08:00,18.77,330.6,13.65,-9.22,16.35
2007-10-12 09:00,,,,,
2007-10-12 10:00,24.93,22.2,13.84,9.43,23.08
2007-10-12 11:00,28.74,1.5,13.75,0.75,28.73
2007-10-12 12:00,30.21,15.2,13.72,7.92,29.15
2007-10-12 13:00,26.10,4.3,13.62,1.96,26.03
2007-10-12 14:00,16.72,42.6,13.62,11.32,12.30
2007-10-12 15:00,18.48,10.6,13.59,3.41,18.16
2007-10-12 16:00,16.13,44.4,13.53,11.28,11.53
2007-10-12 17:00,19.36,149.2,13.47,9.92,-16.62
2007-10-12 18:00,17.60,136.1,13.69,12.19,-12.69
2007-10-12 19:00,,,,,
2007-10-12 20:00,18.48,142.5,13.65,11.25,-14.66
2007-10-12 21:00,29.62,148.5,13.65,15.50,-25.25
2007-10-12 22:00,14.96,116.1,13.69,13.43,-6.58
2007-10-12 23:00,12.03,186.1,13.72,-1.27,-11.96
2007-10-13 00:00,0.88,148.5,13.72,0.46,-0.75
2007-10-13 01:00,11.44,349.2,13.69,-2.15,11.24
2007-10-13 02:00,10.27,40.9,13.65,6.72,7.76
2007-10-13 03:00,14.66,91.8,13.59,14.66,-0.47
2007-10-13 04:00,14.66,112.6,13.56,13.54,-5.63
2007-10-13 05:00,23.76,129.5,13.50,18.34,-15.10
2007-10-13 06:00,37.54,140.4,13.47,23.95,-28.91
2007-10-13 07:00,52.50,151.6,13.47,24.95,-46.19
2007-10-13 08:00,44.87,143.2,13.40,26.89,-35.92
2007-10-13 09:00,41.94,159.7,13.34,14.55,-39.34
2007-10-13 10:00,39.01,172.7,13.31,4.95,-38.69
2007-10-13 11:00,26.98,182.2,13.31,-1.04,-26.96
2007-10-13 12:00,23.46,187.8,13.28,-3.20,-23.24
2007-10-13 13:00,11.73,260.3,13.24,-11.56,-1.98
2007-10-13 14:00,13.49,274.3,13.24,-13.45,1.02
2007-10-13 15:00,10.56,290.9,13.24,-9.87,3.76
2007-10-13 16:00,11.44,286.6,13.28,-10.96,3.27
2007-10-13 17:00,10.56,282.8,13.28,-10.30,2.33
2007-10-13 18:00,4.69,212.8,13.34,-2.54,-3.94
2007-10-13 19:00,7.04,209.3,13.34,-3.44,-6.14
2007-10-13 20:00,9.97,115.1,13.31,9.03,-4.22
2007-10-13 21:00,17.01,97.8,13.31,16.85,-2.32
2007-10-13 22:00,30.21,91.5,13.28,30.20,-0.79
2007-10-13 23:00,33.44,83.8,13.24,33.24,3.63
2007-10-14 00:00,35.78,69.7,13.28,33.56,12.42
2007-10-14 01:00,27.86,93.3,13.28,27.82,-1.58
2007-10-14 02:00,14.08,103.1,13.28,13.71,-3.19
2007-10-14 03:00,12.91,146.3,13.28,7.15,-10.74
2007-10-14 04:00,14.66,183.6,13.28,-0.92,-14.64
2007-10-14 05:00,21.41,192.8,13.24,-4.73,-20.88
2007-10-14 06:00,24.64,202.6,13.24,-9.47,-22.75
2007-10-14 07:00,29.33,201.5,13.21,-10.77,-27.28
2007-10-14 08:00,34.02,224.4,13.28,-23.80,-24.31
2007-10-14 09:00,25.81,240.2,13.28,-22.40,-12.82
2007-10-14 10:00,9.39,318.6,13.34,-6.20,7.04